IBE303 LEMD-MMMX

Flight info

Callsign IBE303
Flight time N/A
Altitude 32000
Route ZMR7L ZMR N733 DESAT DCT STG DCT MUDOS/M083F320 DCT 44N020W 43N030W 41N040W 38N050W 34N060W DCT LAZEY DCT BALTN M329 GRATX/N0495F320 Y642 LULLS Y196 CANOA UM346 AXOMU UR522 PAZ UT154 ENAGA ENAGA3B
Aircraft A346/H-SDE2E3FGHIJ3J4J5M1RWXY/LB1D1

Departure

Time N/A
Airport Adolfo Suárez Madrid–Barajas Airport (LEMD)

Arrival

Time 2026-05-06 20:46
Airport Mexico City Benito Juárez International Airport (MMMX)
Time Latitude Longitude Altitude Speed Heading
2026-05-06 18:44 23.55869 -85.15112 32027 ft 470 kts 258°
2026-05-06 18:45 23.54359 -85.22057 32027 ft 470 kts 258°
2026-05-06 18:45 23.52854 -85.28947 32023 ft 470 kts 258°
2026-05-06 18:46 23.51330 -85.35892 32022 ft 470 kts 258°
2026-05-06 18:46 23.49803 -85.42830 32021 ft 470 kts 258°
2026-05-06 18:47 23.48274 -85.49764 32021 ft 470 kts 257°
2026-05-06 18:47 23.46761 -85.56643 32021 ft 470 kts 258°
2026-05-06 18:48 23.45237 -85.63577 32020 ft 470 kts 257°
2026-05-06 18:48 23.43707 -85.70506 32019 ft 470 kts 257°
2026-05-06 18:49 23.42171 -85.77432 32018 ft 470 kts 257°
2026-05-06 18:49 23.40632 -85.84352 32017 ft 470 kts 257°
2026-05-06 18:50 23.39098 -85.91224 32012 ft 470 kts 257°
2026-05-06 18:50 23.37551 -85.98143 32007 ft 470 kts 257°
2026-05-06 18:51 23.36007 -86.05071 32012 ft 471 kts 257°
2026-05-06 18:51 23.34466 -86.11973 32013 ft 471 kts 257°
2026-05-06 18:52 23.32909 -86.18912 32009 ft 471 kts 257°
2026-05-06 18:52 23.31346 -86.25846 32010 ft 471 kts 257°
2026-05-06 18:53 23.29780 -86.32779 32007 ft 471 kts 257°
2026-05-06 18:53 23.28212 -86.39719 32007 ft 471 kts 257°
2026-05-06 18:54 23.26650 -86.46597 32010 ft 471 kts 257°
2026-05-06 18:54 23.25067 -86.53532 32006 ft 471 kts 257°
2026-05-06 18:55 23.23482 -86.60456 32005 ft 471 kts 257°
2026-05-06 18:55 23.21894 -86.67386 32002 ft 472 kts 257°
2026-05-06 18:56 23.20330 -86.74264 32003 ft 471 kts 257°
2026-05-06 18:56 23.18747 -86.81194 31997 ft 471 kts 257°
2026-05-06 18:57 23.17158 -86.88120 31997 ft 471 kts 257°
2026-05-06 18:57 23.15564 -86.95046 31995 ft 471 kts 257°
2026-05-06 18:58 23.13971 -87.01957 31997 ft 471 kts 257°
2026-05-06 18:58 23.12381 -87.08832 31997 ft 471 kts 256°
2026-05-06 18:59 23.10777 -87.15751 31995 ft 471 kts 256°
2026-05-06 18:59 23.09173 -87.22661 31994 ft 471 kts 256°
2026-05-06 19:00 23.07563 -87.29584 31982 ft 473 kts 256°
2026-05-06 19:00 23.05957 -87.36479 31990 ft 474 kts 256°
2026-05-06 19:01 23.04333 -87.43420 31991 ft 474 kts 256°
2026-05-06 19:01 23.02707 -87.50358 31989 ft 474 kts 256°
2026-05-06 19:02 23.01077 -87.57300 31988 ft 474 kts 256°
2026-05-06 19:02 22.99458 -87.64186 31986 ft 474 kts 256°
2026-05-06 19:03 22.97823 -87.71124 31982 ft 474 kts 256°
2026-05-06 19:03 22.96185 -87.78060 31981 ft 474 kts 256°
2026-05-06 19:04 22.94543 -87.84993 31975 ft 474 kts 256°
2026-05-06 19:04 22.92909 -87.91878 31973 ft 474 kts 256°
2026-05-06 19:05 22.91261 -87.98807 31972 ft 474 kts 256°
2026-05-06 19:05 22.89611 -88.05731 31972 ft 474 kts 256°
2026-05-06 19:06 22.87956 -88.12657 31972 ft 473 kts 256°
2026-05-06 19:06 22.86296 -88.19578 31964 ft 473 kts 255°
2026-05-06 19:07 22.84651 -88.26448 31965 ft 473 kts 256°
2026-05-06 19:07 22.82997 -88.33367 31959 ft 473 kts 255°
2026-05-06 19:08 22.81334 -88.40283 31957 ft 473 kts 255°
2026-05-06 19:08 22.79664 -88.47199 31958 ft 473 kts 255°
2026-05-06 19:09 22.78003 -88.54067 31958 ft 473 kts 255°
2026-05-06 19:09 22.76333 -88.60988 31953 ft 475 kts 255°
2026-05-06 19:10 22.74654 -88.67933 31949 ft 476 kts 255°
2026-05-06 19:10 22.72967 -88.74879 31950 ft 476 kts 255°
2026-05-06 19:11 22.71275 -88.81821 31943 ft 476 kts 255°
2026-05-06 19:11 22.69594 -88.88709 31944 ft 476 kts 255°
2026-05-06 19:12 22.67896 -88.95641 31945 ft 475 kts 255°
2026-05-06 19:12 22.66196 -89.02571 31945 ft 476 kts 255°
2026-05-06 19:13 22.64493 -89.09497 31939 ft 476 kts 255°
2026-05-06 19:13 22.62798 -89.16378 31943 ft 475 kts 255°
2026-05-06 19:14 22.61088 -89.23306 31942 ft 475 kts 255°
2026-05-06 19:14 22.59378 -89.30227 31934 ft 475 kts 255°
2026-05-06 19:15 22.57663 -89.37142 31931 ft 475 kts 255°
2026-05-06 19:15 22.55945 -89.44060 31929 ft 475 kts 255°
2026-05-06 19:16 22.54235 -89.50925 31926 ft 475 kts 254°
2026-05-06 19:16 22.52512 -89.57832 31926 ft 475 kts 254°
2026-05-06 19:17 22.50783 -89.64740 31926 ft 475 kts 254°
2026-05-06 19:17 22.49050 -89.71652 31920 ft 475 kts 254°
2026-05-06 19:18 22.47337 -89.78514 31920 ft 475 kts 255°
2026-05-06 19:18 22.45615 -89.85416 31909 ft 475 kts 254°
2026-05-06 19:19 22.43878 -89.92347 31913 ft 478 kts 254°
2026-05-06 19:19 22.42132 -89.99287 31921 ft 478 kts 254°
2026-05-06 19:20 22.40400 -90.06160 31916 ft 477 kts 254°
2026-05-06 19:20 22.38648 -90.13086 31915 ft 477 kts 254°
2026-05-06 19:21 22.36892 -90.20008 31911 ft 477 kts 254°
2026-05-06 19:21 22.35132 -90.26936 31912 ft 477 kts 254°
2026-05-06 19:22 22.33374 -90.33855 31911 ft 477 kts 254°
2026-05-06 19:22 22.31624 -90.40726 31907 ft 477 kts 253°
2026-05-06 19:23 22.29854 -90.47647 31909 ft 477 kts 253°
2026-05-06 19:23 22.28091 -90.54562 31907 ft 477 kts 253°
2026-05-06 19:24 22.26324 -90.61479 31904 ft 477 kts 253°
2026-05-06 19:24 22.24551 -90.68393 31904 ft 477 kts 253°
2026-05-06 19:25 22.22773 -90.75306 31904 ft 477 kts 253°
2026-05-06 19:25 22.21002 -90.82179 31906 ft 478 kts 253°
2026-05-06 19:26 22.19214 -90.89096 31901 ft 478 kts 253°
2026-05-06 19:26 22.17424 -90.96011 31901 ft 478 kts 253°
2026-05-06 19:27 22.15625 -91.02945 31899 ft 478 kts 253°
2026-05-06 19:27 22.13841 -91.09809 31898 ft 478 kts 253°
2026-05-06 19:28 22.12043 -91.16720 31892 ft 478 kts 253°
2026-05-06 19:28 22.10236 -91.23642 31895 ft 479 kts 253°
2026-05-06 19:29 22.08435 -91.30524 31892 ft 479 kts 253°
2026-05-06 19:29 22.06616 -91.37452 31893 ft 479 kts 253°
2026-05-06 19:30 22.04799 -91.44372 31894 ft 479 kts 253°
2026-05-06 19:30 22.02987 -91.51295 31893 ft 479 kts 253°
2026-05-06 19:31 22.01170 -91.58222 31891 ft 480 kts 252°
2026-05-06 19:31 21.98444 -91.68557 31890 ft 480 kts 252°
2026-05-06 19:32 21.96613 -91.75480 31888 ft 480 kts 252°
2026-05-06 19:32 21.94777 -91.82404 31888 ft 480 kts 252°
2026-05-06 19:33 21.92937 -91.89333 31887 ft 480 kts 252°
2026-05-06 19:33 21.91110 -91.96201 31886 ft 479 kts 252°
2026-05-06 19:34 21.89260 -92.03128 31881 ft 480 kts 252°
2026-05-06 19:34 21.87415 -92.10030 31882 ft 479 kts 252°
2026-05-06 19:35 21.85879 -92.15770 31877 ft 479 kts 252°
2026-05-06 19:35 21.83727 -92.23796 31876 ft 479 kts 252°
2026-05-06 19:36 21.82174 -92.29574 31876 ft 479 kts 252°
2026-05-06 19:36 21.80020 -92.37583 31873 ft 478 kts 252°
2026-05-06 19:37 21.78480 -92.43305 31874 ft 478 kts 252°
2026-05-06 19:37 21.76616 -92.50200 31862 ft 479 kts 252°
2026-05-06 19:38 21.74749 -92.57086 31867 ft 480 kts 252°
2026-05-06 19:38 21.72894 -92.63929 31862 ft 479 kts 252°
2026-05-06 19:39 21.71024 -92.70824 31862 ft 479 kts 252°
2026-05-06 19:39 21.69151 -92.77714 31862 ft 479 kts 252°
2026-05-06 19:40 21.67280 -92.84602 31860 ft 479 kts 252°
2026-05-06 19:40 21.65423 -92.91432 31855 ft 480 kts 252°
2026-05-06 19:41 21.63549 -92.98315 31856 ft 478 kts 252°
2026-05-06 19:41 21.61662 -93.05209 31857 ft 478 kts 252°
2026-05-06 19:42 21.59770 -93.12081 31853 ft 478 kts 252°
2026-05-06 19:42 21.57901 -93.18898 31853 ft 479 kts 252°
2026-05-06 19:43 21.56017 -93.25763 31848 ft 479 kts 252°
2026-05-06 19:43 21.54126 -93.32626 31848 ft 477 kts 252°
2026-05-06 19:44 21.52231 -93.39488 31848 ft 478 kts 252°
2026-05-06 19:44 21.50349 -93.46295 31846 ft 479 kts 252°
2026-05-06 19:45 21.48453 -93.53144 31839 ft 479 kts 252°
2026-05-06 19:45 21.46553 -93.59989 31840 ft 478 kts 252°
2026-05-06 19:46 21.44649 -93.66838 31839 ft 477 kts 252°
2026-05-06 19:46 21.42744 -93.73678 31840 ft 478 kts 252°
2026-05-06 19:47 21.40848 -93.80478 31844 ft 479 kts 252°
2026-05-06 19:47 21.38935 -93.87311 31830 ft 477 kts 252°
2026-05-06 19:48 21.37025 -93.94132 31831 ft 476 kts 252°
2026-05-06 19:48 21.35108 -94.00970 31832 ft 476 kts 252°
2026-05-06 19:49 21.33191 -94.07807 31831 ft 477 kts 252°
2026-05-06 19:49 21.31289 -94.14575 31823 ft 477 kts 252°
2026-05-06 19:50 21.29365 -94.21391 31824 ft 477 kts 252°
2026-05-06 19:50 21.27444 -94.28191 31817 ft 475 kts 252°
2026-05-06 19:51 21.25521 -94.34999 31819 ft 475 kts 252°
2026-05-06 19:51 21.23613 -94.41737 31818 ft 476 kts 252°
2026-05-06 19:52 21.21683 -94.48524 31815 ft 476 kts 252°
2026-05-06 19:52 21.19752 -94.55319 31814 ft 475 kts 252°
2026-05-06 19:53 21.17820 -94.62115 31807 ft 475 kts 252°
2026-05-06 19:53 21.15896 -94.68861 31812 ft 476 kts 252°
2026-05-06 19:54 21.13953 -94.75656 31802 ft 477 kts 252°
2026-05-06 19:54 21.12008 -94.82447 31800 ft 477 kts 252°
2026-05-06 19:55 21.10061 -94.89238 31797 ft 476 kts 252°
2026-05-06 19:55 21.08123 -94.95977 31800 ft 475 kts 252°
2026-05-06 19:56 21.06458 -95.02836 31794 ft 477 kts 257°
2026-05-06 19:56 21.05163 -95.09823 31795 ft 479 kts 257°
2026-05-06 19:57 21.03874 -95.16828 31793 ft 478 kts 257°
2026-05-06 19:57 21.02586 -95.23778 31791 ft 478 kts 257°
2026-05-06 19:58 21.01290 -95.30769 31790 ft 479 kts 257°
2026-05-06 19:58 21.00010 -95.37768 31784 ft 479 kts 258°
2026-05-06 19:59 20.98722 -95.44762 31782 ft 479 kts 257°
2026-05-06 19:59 20.97431 -95.51724 31781 ft 479 kts 257°
2026-05-06 20:00 20.96132 -95.58724 31781 ft 479 kts 257°
2026-05-06 20:00 20.94833 -95.65708 31776 ft 479 kts 257°
2026-05-06 20:01 20.93521 -95.72711 31776 ft 479 kts 257°
2026-05-06 20:01 20.92214 -95.79659 31775 ft 480 kts 257°
2026-05-06 20:02 20.90892 -95.86667 31773 ft 480 kts 257°
2026-05-06 20:02 20.89567 -95.93672 31772 ft 480 kts 257°
2026-05-06 20:03 20.88241 -96.00662 31770 ft 480 kts 257°
2026-05-06 20:03 20.86920 -96.07614 31769 ft 480 kts 257°
2026-05-06 20:04 20.85586 -96.14618 31764 ft 480 kts 257°
2026-05-06 20:04 20.84251 -96.21614 31764 ft 480 kts 257°
2026-05-06 20:05 20.82912 -96.28610 31758 ft 480 kts 257°
2026-05-06 20:05 20.81579 -96.35558 31759 ft 480 kts 257°
2026-05-06 20:06 20.80235 -96.42550 31759 ft 480 kts 257°
2026-05-06 20:06 20.78886 -96.49550 31760 ft 480 kts 257°
2026-05-06 20:07 20.77533 -96.56549 31757 ft 480 kts 257°
2026-05-06 20:07 20.76186 -96.63499 31755 ft 480 kts 257°
2026-05-06 20:08 20.74824 -96.70502 31752 ft 480 kts 257°
2026-05-06 20:08 20.73459 -96.77501 31750 ft 480 kts 257°
2026-05-06 20:09 20.72095 -96.84507 31749 ft 480 kts 257°
2026-05-06 20:09 20.70747 -96.91450 31748 ft 480 kts 257°
2026-05-06 20:10 20.69381 -96.98442 31751 ft 480 kts 257°
2026-05-06 20:10 20.68010 -97.05425 31745 ft 480 kts 257°
2026-05-06 20:11 20.66635 -97.12411 31746 ft 480 kts 257°
2026-05-06 20:11 20.65254 -97.19397 31731 ft 481 kts 257°
2026-05-06 20:12 20.63866 -97.26400 31740 ft 482 kts 257°
2026-05-06 20:12 20.62486 -97.33362 31744 ft 482 kts 256°
2026-05-06 20:13 20.60630 -97.40230 31745 ft 480 kts 249°
2026-05-06 20:13 20.57877 -97.46730 31745 ft 479 kts 240°
2026-05-06 20:14 20.54316 -97.52683 31731 ft 479 kts 233°
2026-05-06 20:14 20.50099 -97.58178 31735 ft 478 kts 229°
2026-05-06 20:15 20.45797 -97.63589 31728 ft 476 kts 229°
2026-05-06 20:15 20.41510 -97.68981 31728 ft 476 kts 229°
2026-05-06 20:16 20.37228 -97.74374 31729 ft 476 kts 229°
2026-05-06 20:16 20.32970 -97.79733 31736 ft 476 kts 229°
2026-05-06 20:17 20.28686 -97.85120 31747 ft 477 kts 229°
2026-05-06 20:17 20.24386 -97.90522 31778 ft 478 kts 229°
2026-05-06 20:18 20.20108 -97.95888 31780 ft 478 kts 229°
2026-05-06 20:18 20.15836 -98.01241 31778 ft 474 kts 229°
2026-05-06 20:19 20.11562 -98.06594 31824 ft 474 kts 229°
2026-05-06 20:19 20.09422 -98.09269 31668 ft 474 kts 229°
2026-05-06 20:19 20.07282 -98.11941 31276 ft 472 kts 229°
2026-05-06 20:20 20.05240 -98.14673 30740 ft 471 kts 234°
2026-05-06 20:20 20.03503 -98.17626 30105 ft 471 kts 240°
2026-05-06 20:20 20.02094 -98.20775 29424 ft 471 kts 246°
2026-05-06 20:20 20.01063 -98.23972 29243 ft 471 kts 252°
2026-05-06 20:21 20.00284 -98.27375 29073 ft 475 kts 256°
2026-05-06 20:21 19.99581 -98.30810 28812 ft 475 kts 256°
2026-05-06 20:21 19.98891 -98.34256 28560 ft 476 kts 256°
2026-05-06 20:21 19.98202 -98.37703 28282 ft 476 kts 256°
2026-05-06 20:22 19.97512 -98.41146 27912 ft 473 kts 256°
2026-05-06 20:22 19.96834 -98.44522 27705 ft 460 kts 256°
2026-05-06 20:22 19.96171 -98.47802 27531 ft 446 kts 256°
2026-05-06 20:22 19.95527 -98.50992 27294 ft 435 kts 255°
2026-05-06 20:23 19.94900 -98.54062 27074 ft 424 kts 256°
2026-05-06 20:23 19.94282 -98.57088 26870 ft 414 kts 255°
2026-05-06 20:23 19.93686 -98.60022 26852 ft 398 kts 255°
2026-05-06 20:23 19.93110 -98.62848 26841 ft 383 kts 255°
2026-05-06 20:24 19.92554 -98.65561 26824 ft 368 kts 256°
2026-05-06 20:24 19.92023 -98.68167 26825 ft 353 kts 255°
2026-05-06 20:24 19.91511 -98.70681 26867 ft 345 kts 255°
2026-05-06 20:24 19.91014 -98.73180 26903 ft 345 kts 257°
2026-05-06 20:25 19.90655 -98.75673 26847 ft 348 kts 260°
2026-05-06 20:25 19.90366 -98.78218 26602 ft 344 kts 261°
2026-05-06 20:25 19.90088 -98.80741 26238 ft 342 kts 261°
2026-05-06 20:25 19.89811 -98.83251 25868 ft 341 kts 261°
2026-05-06 20:26 19.89536 -98.85736 25518 ft 339 kts 261°
2026-05-06 20:26 19.89273 -98.88226 25169 ft 338 kts 263°
2026-05-06 20:26 19.89165 -98.90725 24816 ft 338 kts 267°
2026-05-06 20:26 19.89248 -98.93224 24469 ft 338 kts 271°
2026-05-06 20:27 19.89412 -98.95713 24108 ft 336 kts 271°
2026-05-06 20:27 19.89583 -98.98157 23754 ft 335 kts 271°
2026-05-06 20:27 19.89752 -99.00620 23334 ft 334 kts 271°
2026-05-06 20:27 19.89919 -99.03078 22916 ft 332 kts 271°
2026-05-06 20:28 19.90084 -99.05525 22511 ft 331 kts 271°
2026-05-06 20:28 19.90248 -99.07963 22093 ft 329 kts 272°
2026-05-06 20:28 19.90410 -99.10386 21688 ft 327 kts 271°
2026-05-06 20:28 19.90574 -99.12788 21323 ft 324 kts 271°
2026-05-06 20:29 19.90729 -99.15141 20955 ft 322 kts 271°
2026-05-06 20:29 19.90884 -99.17512 20554 ft 320 kts 271°
2026-05-06 20:29 19.91038 -99.19866 20146 ft 319 kts 271°
2026-05-06 20:29 19.91192 -99.22218 19737 ft 318 kts 272°
2026-05-06 20:30 19.91347 -99.24564 19351 ft 317 kts 272°
2026-05-06 20:30 19.91476 -99.29211 18576 ft 313 kts 262°
2026-05-06 20:30 19.91106 -99.31481 18188 ft 310 kts 255°
2026-05-06 20:31 19.90572 -99.33697 17766 ft 309 kts 252°
2026-05-06 20:31 19.90021 -99.35853 17522 ft 301 kts 253°
2026-05-06 20:31 19.89487 -99.37966 17528 ft 294 kts 253°
2026-05-06 20:31 19.88973 -99.40022 17541 ft 289 kts 253°
2026-05-06 20:32 19.88466 -99.42069 17534 ft 287 kts 253°
2026-05-06 20:32 19.87918 -99.44113 17529 ft 287 kts 246°
2026-05-06 20:32 19.87011 -99.45989 17537 ft 285 kts 233°
2026-05-06 20:32 19.85745 -99.47606 17549 ft 284 kts 225°
2026-05-06 20:33 19.84373 -99.49120 17545 ft 284 kts 224°
2026-05-06 20:33 19.82992 -99.50619 17551 ft 284 kts 223°
2026-05-06 20:33 19.81614 -99.52123 17546 ft 284 kts 224°
2026-05-06 20:33 19.80217 -99.53559 17540 ft 282 kts 212°
2026-05-06 20:34 19.78461 -99.54419 17560 ft 278 kts 188°
2026-05-06 20:34 19.76555 -99.54448 17572 ft 276 kts 166°
2026-05-06 20:34 19.74751 -99.53646 17571 ft 289 kts 143°
2026-05-06 20:34 19.73355 -99.52119 17256 ft 290 kts 123°
2026-05-06 20:35 19.72292 -99.50307 16885 ft 288 kts 121°
2026-05-06 20:35 19.71248 -99.48491 16517 ft 288 kts 121°
2026-05-06 20:35 19.70201 -99.46680 16173 ft 287 kts 121°
2026-05-06 20:35 19.69171 -99.44918 15898 ft 284 kts 121°
2026-05-06 20:36 19.68128 -99.43141 15601 ft 282 kts 121°
2026-05-06 20:36 19.67088 -99.41373 15261 ft 282 kts 121°
2026-05-06 20:36 19.66074 -99.39655 15157 ft 265 kts 121°
2026-05-06 20:36 19.65121 -99.38042 15131 ft 253 kts 121°
2026-05-06 20:37 19.64188 -99.36462 15154 ft 253 kts 121°
2026-05-06 20:37 19.63247 -99.34870 15186 ft 254 kts 121°
2026-05-06 20:37 19.62328 -99.33318 15205 ft 239 kts 121°
2026-05-06 20:37 19.61482 -99.31892 15200 ft 226 kts 121°
2026-05-06 20:38 19.60660 -99.30505 14938 ft 219 kts 123°
2026-05-06 20:38 19.59722 -99.29219 14449 ft 222 kts 132°
2026-05-06 20:38 19.58574 -99.28120 13990 ft 223 kts 140°
2026-05-06 20:38 19.57337 -99.27134 13533 ft 222 kts 142°
2026-05-06 20:39 19.56094 -99.26173 13085 ft 219 kts 142°
2026-05-06 20:39 19.54864 -99.25218 12790 ft 220 kts 143°
2026-05-06 20:39 19.53614 -99.24267 12516 ft 221 kts 148°
2026-05-06 20:39 19.52204 -99.23646 12265 ft 221 kts 165°
2026-05-06 20:40 19.50677 -99.23468 12016 ft 221 kts 176°
2026-05-06 20:40 19.49163 -99.23439 11804 ft 221 kts 178°
2026-05-06 20:40 19.47606 -99.23435 11558 ft 232 kts 179°
2026-05-06 20:40 19.45942 -99.23423 11304 ft 238 kts 178°
2026-05-06 20:41 19.44326 -99.23404 11077 ft 227 kts 178°
2026-05-06 20:41 19.42791 -99.23379 10859 ft 214 kts 178°
2026-05-06 20:41 19.41370 -99.23355 10683 ft 195 kts 178°
2026-05-06 20:41 19.40042 -99.23256 10471 ft 188 kts 165°
2026-05-06 20:42 19.38858 -99.22734 10139 ft 183 kts 146°
2026-05-06 20:42 19.37940 -99.21843 9820 ft 181 kts 126°
2026-05-06 20:42 19.37353 -99.20670 9683 ft 180 kts 107°
2026-05-06 20:42 19.37161 -99.19373 9573 ft 177 kts 91°
2026-05-06 20:43 19.37368 -99.18102 9417 ft 176 kts 67°
2026-05-06 20:43 19.37992 -99.16986 9328 ft 176 kts 56°
2026-05-06 20:43 19.38665 -99.15902 9280 ft 176 kts 60°
2026-05-06 20:43 19.39287 -99.14782 9163 ft 176 kts 62°
2026-05-06 20:44 19.39846 -99.13699 8914 ft 175 kts 62°
2026-05-06 20:44 19.40463 -99.12550 8555 ft 175 kts 61°
2026-05-06 20:44 19.41076 -99.11459 8230 ft 174 kts 60°
2026-05-06 20:44 19.41708 -99.10378 7843 ft 170 kts 62°
2026-05-06 20:45 19.42303 -99.09297 7617 ft 169 kts 63°
2026-05-06 20:45 19.42897 -99.08229 7350 ft 167 kts 62°
2026-05-06 20:45 19.43433 -99.07276 7314 ft 118 kts 59°
2026-05-06 20:45 19.43721 -99.06765 7315 ft 51 kts 59°
2026-05-06 20:46 19.43858 -99.06550 7314 ft 29 kts 42°
2026-05-06 20:46 19.44029 -99.06442 7313 ft 29 kts 30°
2026-05-06 20:46 19.44180 -99.06353 7313 ft 18 kts 27°
2026-05-06 20:46 19.44300 -99.06296 7312 ft 20 kts 19°
2026-05-06 20:47 19.44412 -99.06337 7314 ft 11 kts 285°
2026-05-06 20:47 19.44371 -99.06422 7314 ft 14 kts 236°
2026-05-06 20:47 19.44313 -99.06515 7312 ft 16 kts 237°
2026-05-06 20:47 19.44252 -99.06622 7314 ft 18 kts 240°
2026-05-06 20:48 19.44188 -99.06739 7315 ft 19 kts 240°
2026-05-06 20:48 19.44118 -99.06865 7314 ft 20 kts 239°
2026-05-06 20:48 19.44044 -99.06995 7315 ft 21 kts 238°
2026-05-06 20:48 19.43965 -99.07133 7314 ft 22 kts 239°
2026-05-06 20:49 19.43884 -99.07277 7315 ft 23 kts 239°
2026-05-06 20:49 19.43799 -99.07427 7313 ft 24 kts 239°
2026-05-06 20:49 19.43712 -99.07581 7314 ft 25 kts 239°
2026-05-06 20:49 19.43625 -99.07739 7314 ft 25 kts 239°
2026-05-06 20:50 19.43562 -99.07855 7312 ft 0 kts 255°
2026-05-06 20:50 19.43568 -99.07874 7315 ft 5 kts 314°
2026-05-06 20:50 19.43604 -99.07873 7314 ft 5 kts
2026-05-06 20:50 19.43627 -99.07881 7315 ft 5 kts 331°
2026-05-06 20:51 19.43631 -99.07884 7315 ft 0 kts 314°